FW0058 Weather Reports


time (UTC)temp
C
wind
direction
speed
KPH
gust
KPH
rain 1hr
cm
rain 24hr
cm
rain mn
cm
humidity
%
barometer
mb
20260508001532 22 191 6.4 19.3 0.00 0.00 0.00 65 1012.9
20260508000013 22 152 9.7 19.3 0.00 0.00 0.00 65 1012.9
20260507234513 22 182 6.4 16.1 0.00 0.00 0.00 65 1013.0
20260507233021 22 202 6.4 17.7 0.00 0.00 0.00 64 1013.0
20260507231512 22 130 9.7 17.7 0.00 0.00 0.00 65 1013.1
20260507230021 23 190 9.7 19.3 0.00 0.00 0.00 62 1013.0
20260507224512 23 153 8.0 19.3 0.00 0.00 0.00 61 1013.2
20260507223003 23 169 8.0 19.3 0.00 0.00 0.00 59 1013.3
20260507221502 23 171 9.7 17.7 0.00 0.00 0.00 61 1013.3
20260507220100 23 206 9.7 16.1 0.00 0.00 0.00 59 1013.6
20260507214559 23 133 8.0 22.5 0.00 0.00 0.00 60 1013.7
20260507213100 23 186 8.0 17.7 0.00 0.00 0.00 61 1013.9
20260507211556 23 196 6.4 19.3 0.00 0.00 0.00 60 1014.0
20260507210054 23 165 8.0 16.1 0.00 0.00 0.00 60 1014.0
20260507204552 23 165 4.8 17.7 0.00 0.00 0.00 60 1014.2
20260507203022 23 165 6.4 19.3 0.00 0.00 0.00 60 1014.3
20260507201533 23 205 8.0 19.3 0.00 0.00 0.00 62 1014.3
20260507200049 23 132 8.0 22.5 0.00 0.00 0.00 62 1014.5
20260507194548 23 101 11.3 24.1 0.00 0.00 0.00 62 1014.6
20260507193045 24 184 4.8 19.3 0.00 0.00 0.00 59 1014.7
20260507191544 24 170 3.2 12.9 0.00 0.00 0.00 59 1014.8
20260507190042 24 175 6.4 14.5 0.00 0.00 0.00 60 1014.9
20260507184537 23 155 4.8 12.9 0.00 0.00 0.00 61 1015.1
20260507183048 23 192 9.7 16.1 0.00 0.00 0.00 62 1015.3
20260507181533 23 146 4.8 16.1 0.00 0.00 0.00 63 1015.2
20260507180043 23 117 6.4 11.3 0.00 0.00 0.00 63 1015.3
20260507174528 22 76 3.2 9.7 0.00 0.00 0.00 63 1015.4
20260507173027 22 155 6.4 12.9 0.00 0.00 0.00 65 1015.5
20260507171517 21 55 1.6 9.7 0.00 0.00 0.00 67 1015.5
20260507170031 21 78 1.6 8.0 0.00 0.00 0.00 66 1015.6
20260507164512 20 70 3.2 8.0 0.00 0.00 0.00 69 1015.6
20260507163008 20 140 1.6 9.7 0.00 0.00 0.00 72 1015.7
20260507161505 19 299 0.0 9.7 0.00 0.00 0.00 76 1015.7
20260507160101 18 120 1.6 8.0 0.00 0.00 0.00 78 1015.8
20260507154602 17 49 0.0 9.7 0.00 0.00 0.00 80 1016.0
20260507153026 17 30 1.6 8.0 0.00 0.00 0.00 82 1016.0
20260507151523 16 108 0.0 3.2 0.00 0.00 0.00 85 1016.1
20260507150019 16 103 0.0 6.4 0.00 0.00 0.00 85 1016.1
20260507144518 16 117 0.0 6.4 0.00 0.00 0.00 86 1016.1
20260507143017 15 165 0.0 1.6 0.00 0.00 0.00 85 1015.9
20260507141516 15 115 0.0 0.0 0.00 0.00 0.00 85 1015.8
20260507140015 15 95 1.6 3.2 0.00 0.00 0.00 85 1015.7
20260507134514 14 69 0.0 0.0 0.00 0.00 0.00 85 1015.5
20260507133014 14 105 0.0 0.0 0.00 0.00 0.00 86 1015.4
20260507131513 13 105 0.0 0.0 0.00 0.00 0.00 85 1015.3
20260507130010 14 105 0.0 0.0 0.00 0.00 0.00 85 1015.2
20260507124509 14 128 0.0 0.0 0.00 0.00 0.00 85 1015.1
20260507123010 14 128 0.0 0.0 0.00 0.00 0.00 85 1015.0
20260507121507 14 227 0.0 0.0 0.00 0.00 0.00 85 1015.1
20260507120003 14 227 0.0 0.0 0.00 0.00 0.00 84 1015.1
20260507114501 15 227 0.0 0.0 0.00 0.00 0.00 84 1015.2
20260507113100 15 257 0.0 0.0 0.00 0.00 0.00 84 1015.2
20260507111559 15 257 0.0 1.6 0.00 0.00 0.00 84 1015.2
20260507104601 15 257 0.0 1.6 0.00 0.00 0.00 83 1015.4
20260507103122 15 267 0.0 0.0 0.00 0.00 0.00 83 1015.5
20260507101551 15 284 0.0 0.0 0.00 0.00 0.00 83 1015.4
20260507100103 15 281 0.0 0.0 0.00 0.00 0.00 83 1015.5
20260507094548 15 280 0.0 0.0 0.00 0.00 0.00 83 1015.6
20260507093044 15 314 0.0 0.0 0.00 0.00 0.00 82 1015.7
20260507091546 15 286 0.0 3.2 0.00 0.00 0.00 82 1015.9
20260507090048 15 284 0.0 3.2 0.00 0.00 0.00 81 1016.0
20260507084532 16 271 1.6 9.7 0.00 0.00 0.00 81 1016.3
20260507083008 16 251 1.6 9.7 0.00 0.00 0.00 80 1016.4
20260507081505 16 274 0.0 8.0 0.00 0.00 0.00 79 1016.4
20260507080004 16 295 0.0 8.0 0.00 0.00 0.00 79 1016.4
20260507074505 16 261 0.0 9.7 0.00 0.00 0.00 79 1016.4
20260507073001 16 279 0.0 8.0 0.00 0.00 0.00 78 1016.4
20260507071530 16 273 1.6 6.4 0.00 0.00 0.00 77 1016.4
20260507070037 16 259 0.0 6.4 0.00 0.00 0.00 77 1016.5
20260507064526 16 261 3.2 6.4 0.00 0.00 0.00 76 1016.6
20260507063026 16 277 1.6 4.8 0.00 0.00 0.00 76 1016.7
20260507061525 17 255 0.0 6.4 0.00 0.00 0.00 75 1016.7
20260507060025 17 237 3.2 8.0 0.00 0.00 0.00 74 1016.7
20260507054522 17 329 0.0 8.0 0.00 0.00 0.00 73 1016.8
20260507053024 17 274 0.0 8.0 0.00 0.00 0.00 72 1016.7
20260507051522 17 288 1.6 11.3 0.00 0.00 0.00 72 1016.6
20260507050037 17 279 4.8 9.7 0.00 0.00 0.00 73 1016.5
20260507044519 17 240 0.0 8.0 0.00 0.00 0.00 75 1016.5
20260507043019 17 175 0.0 0.0 0.00 0.00 0.00 76 1016.4
20260507041518 17 186 0.0 6.4 0.00 0.00 0.00 76 1016.3
20260507040018 17 151 1.6 6.4 0.00 0.00 0.00 76 1016.2
20260507034520 17 142 1.6 8.0 0.00 0.00 0.00 75 1016.1
20260507033017 17 180 0.0 8.0 0.00 0.00 0.00 75 1015.9
20260507031515 17 161 0.0 8.0 0.00 0.00 0.00 74 1015.8
20260507030017 18 193 1.6 8.0 0.00 0.00 0.00 73 1015.6
20260507024514 18 148 4.8 11.3 0.00 0.00 0.00 72 1015.4
20260507023012 18 167 4.8 12.9 0.00 0.00 0.00 71 1015.3
20260507021511 18 146 3.2 14.5 0.00 0.00 0.00 70 1015.3
20260507020012 19 200 8.0 14.5 0.00 0.00 0.00 68 1015.2
20260507014509 20 212 8.0 16.1 0.00 0.00 0.00 66 1015.1
20260507013008 20 179 8.0 17.7 0.00 0.00 0.00 65 1015.0
20260507011508 20 152 8.0 17.7 0.00 0.00 0.00 64 1014.9
20260507010011 20 239 6.4 19.3 0.00 0.00 0.00 63 1014.9
20260507004505 21 155 9.7 17.7 0.00 0.00 0.00 61 1014.8
20260507003005 21 163 8.0 17.7 0.00 0.00 0.00 61 1014.8